User: anonymous   Login
Location: Campo Claro
(10.4907°N, 66.8285°W)
Time: 08:55:35
(UTC+00:00)
Language:

CZ-4B R/B - Orbit

View from above orbital plane
View from above orbital plane
View from above satellite
View from above satellite

Ground track
Ground track

The orbit data is extracted from the following two-line orbital elements,

1 29093U 06015B   22148.85433426  .00023734  00000-0  30534-3 0  9994
2 29093  97.6039   7.0928 0038561 254.4905 105.2091 15.58155662896507
Epoch (UTC): 28 May 2022 20:30:14
Eccentricity: 0.0038561
inclination: 97.6039°
perigee height: 367 km
apogee height: 419 km
right ascension of ascending node: 7.0928°
argument of perigee: 254.4905°
revolutions per day: 15.58155662
mean anomaly at epoch: 105.2091°
orbit number at epoch: 89650

The dashed part of the orbit path shows where the satellite is in the earth's shadow,  

DLR